TimeEDT,TemperatureF,Dew PointF,Humidity,Sea Level PressureIn,VisibilityMPH,Wind Direction,Wind SpeedMPH,Gust SpeedMPH,PrecipitationIn,Events,Conditions,WindDirDegrees,DateUTC
12:52 AM,26.6,26.6,100,-9999,0.0,WNW,66.7,80.6,N/A,Fog,Light Freezing Fog,290,2012-10-22 04:52:00
1:55 AM,26.6,26.6,100,-9999,0.0,WNW,66.7,78.3,N/A,Fog,Light Freezing Fog,290,2012-10-22 05:55:00
2:47 AM,26.6,26.6,100,-9999,0.0,WNW,66.7,74.8,N/A,Fog,Light Freezing Fog,290,2012-10-22 06:47:00
3:50 AM,26.6,26.6,100,-9999,0.0,WNW,82.9,90.9,N/A,Fog,Light Freezing Fog,290,2012-10-22 07:50:00
4:55 AM,24.8,24.8,100,-9999,0.0,WNW,82.9,93.2,N/A,Fog,Light Freezing Fog,300,2012-10-22 08:55:00
5:49 AM,24.8,24.8,100,-9999,0.0,WNW,82.9,95.5,N/A,Fog,Light Freezing Fog,300,2012-10-22 09:49:00
6:51 AM,24.8,24.8,100,-9999,0.0,WNW,85.2,100.1,N/A,Fog,Light Freezing Fog,300,2012-10-22 10:51:00
7:51 AM,24.8,24.8,100,-9999,0.0,WNW,80.6,89.8,N/A,Fog,Light Freezing Fog,300,2012-10-22 11:51:00
8:53 AM,26.6,26.6,100,-9999,0.0,WNW,86.3,96.7,N/A,Fog,Light Freezing Fog,300,2012-10-22 12:53:00
9:51 AM,26.6,26.6,100,-9999,0.0,WNW,78.3,88.6,N/A,Fog,Light Freezing Fog,300,2012-10-22 13:51:00
10:54 AM,26.6,26.6,100,-9999,0.0,WNW,81.7,92.1,N/A,Fog,Light Freezing Fog,300,2012-10-22 14:54:00
11:51 AM,26.6,26.6,100,-9999,0.0,WNW,79.4,88.6,N/A,Fog,Light Freezing Fog,290,2012-10-22 15:51:00
12:54 PM,26.6,26.6,100,-9999,0.0,West,82.9,89.8,N/A,Fog,Light Freezing Fog,280,2012-10-22 16:54:00
1:51 PM,26.6,26.6,100,-9999,0.0,WNW,71.3,82.9,N/A,Fog,Light Freezing Fog,290,2012-10-22 17:51:00
2:54 PM,26.6,26.6,100,-9999,0.0,WNW,70.2,-,N/A,Fog,Light Freezing Fog,300,2012-10-22 18:54:00
3:53 PM,26.6,26.6,100,-9999,0.0,WNW,72.5,78.3,N/A,Fog,Light Freezing Fog,290,2012-10-22 19:53:00
4:52 PM,26.6,26.6,100,-9999,0.0,WNW,73.6,82.9,N/A,Fog,Light Freezing Fog,300,2012-10-22 20:52:00
5:47 PM,26.6,26.6,100,-9999,0.0,WNW,70.2,79.4,N/A,Fog,Light Freezing Fog,290,2012-10-22 21:47:00
6:54 PM,28.4,28.4,100,-9999,0.0,WNW,77.1,82.9,N/A,Fog,Light Freezing Fog,300,2012-10-22 22:54:00
7:51 PM,28.4,28.4,100,-9999,0.0,WNW,70.2,85.2,N/A,Fog,Light Freezing Fog,300,2012-10-22 23:51:00
8:48 PM,28.4,28.4,100,-9999,0.0,WNW,77.1,81.7,N/A,Fog,Light Freezing Fog,300,2012-10-23 00:48:00
9:51 PM,28.4,28.4,100,-9999,0.0,WNW,78.3,89.8,N/A,Fog,Light Freezing Fog,300,2012-10-23 01:51:00
10:51 PM,30.2,30.2,100,-9999,0.0,WNW,77.1,88.6,N/A,Fog,Light Freezing Fog,300,2012-10-23 02:51:00
11:51 PM,30.2,30.2,100,-9999,0.0,NW,73.6,90.9,N/A,Fog,Light Freezing Fog,310,2012-10-23 03:51:00